Voltar ao catálogo

CZ-6A DEB

AtivoSSO
NORAD 56646·DEBRIS·🇨🇳 China

Lançado Nov 11, 2022 de Taiyuan Satellite Launch Center

Loading…

Próximas Passagens (próximas 24 horas)

TLE

AtualizadoSource: Space-Track

Época: Sep 13, 2026, 09:54 UTC

1 56646U 22151AFW 26256.41319024  .00001082  00000-0  27516-3 0  9998
2 56646  98.6919 328.1447 0104856  46.6185 314.3682 14.49640402178843

Acompanhe CZ-6A DEB em tempo real com AllMySat

Download on the App Store